FW9676 Weather Reports


Display with metric or nautical units.
time (UTC)temp
F
wind
direction
speed
MPH
gust
MPH
rain 1hr
in
rain 24hr
in
rain mn
in
humidity
%
barometer
mb
20260508200030 69 239 5.0 12.0 0.00 0.00 0.00 77 1015.5
20260508195513 70 213 3.0 10.0 0.00 0.00 0.00 76 1015.5
20260508195017 69 246 4.0 9.0 0.00 0.00 0.00 76 1015.6
20260508194530 69 257 3.0 9.0 0.00 0.00 0.00 77 1015.6
20260508194013 69 228 3.0 9.0 0.00 0.00 0.00 78 1015.6
20260508193511 68 259 5.0 9.0 0.00 0.00 0.00 78 1015.6
20260508193059 68 228 4.0 10.0 0.00 0.00 0.00 78 1015.7
20260508192515 68 275 4.0 10.0 0.00 0.00 0.00 79 1015.7
20260508192017 68 254 4.0 10.0 0.00 0.00 0.00 79 1015.9
20260508191532 68 258 4.0 10.0 0.00 0.00 0.00 79 1015.9
20260508191018 68 256 3.0 9.0 0.00 0.00 0.00 79 1016.0
20260508190518 68 271 3.0 9.0 0.00 0.00 0.00 79 1016.0
20260508190036 68 265 4.0 9.0 0.00 0.00 0.00 79 1016.1
20260508185517 68 275 2.0 8.0 0.00 0.00 0.00 79 1016.1
20260508185013 68 224 2.0 7.0 0.00 0.00 0.00 79 1016.3
20260508184530 68 259 2.0 7.0 0.00 0.00 0.00 79 1016.2
20260508184011 68 293 1.0 6.0 0.00 0.00 0.00 79 1016.2
20260508183515 68 238 0.0 4.0 0.00 0.00 0.00 78 1016.3
20260508183031 68 76 1.0 5.0 0.00 0.00 0.00 79 1016.3
20260508182514 67 68 2.0 5.0 0.00 0.00 0.00 79 1016.3
20260508182015 67 84 1.0 4.0 0.00 0.00 0.00 79 1016.3
20260508181533 67 140 1.0 4.0 0.00 0.00 0.00 79 1016.3
20260508181016 67 116 0.0 5.0 0.00 0.00 0.00 80 1016.4
20260508180514 66 104 1.0 5.0 0.00 0.00 0.00 80 1016.5
20260508180032 66 105 1.0 6.0 0.00 0.00 0.00 81 1016.4
20260508175514 66 0 1.0 6.0 0.00 0.00 0.00 81 1016.5
20260508175016 66 123 1.0 5.0 0.00 0.00 0.00 82 1016.5
20260508174543 66 138 2.0 5.0 0.00 0.00 0.00 82 1016.5
20260508174014 65 73 1.0 6.0 0.00 0.00 0.00 82 1016.4
20260508173514 65 0 1.0 6.0 0.00 0.00 0.00 82 1016.6
20260508173031 65 82 1.0 6.0 0.00 0.00 0.00 83 1016.7
20260508172513 65 117 1.0 6.0 0.00 0.00 0.00 83 1016.8
20260508172013 65 75 1.0 4.0 0.00 0.00 0.00 84 1016.8
20260508171531 64 0 1.0 7.0 0.00 0.00 0.00 84 1016.8
20260508171022 64 0 1.0 8.0 0.00 0.00 0.00 84 1016.8
20260508170514 64 161 3.0 8.0 0.00 0.00 0.00 84 1016.7
20260508170032 64 126 2.0 6.0 0.00 0.00 0.00 84 1016.7
20260508165513 64 120 1.0 6.0 0.00 0.00 0.00 85 1016.7
20260508165014 64 122 2.0 6.0 0.00 0.00 0.00 85 1016.7
20260508164536 63 143 1.0 5.0 0.00 0.00 0.00 86 1016.6
20260508164015 63 134 2.0 5.0 0.00 0.00 0.00 86 1016.6
20260508163513 63 81 2.0 6.0 0.00 0.00 0.00 86 1016.6
20260508163033 63 154 2.0 6.0 0.00 0.00 0.00 86 1016.7
20260508162513 63 98 2.0 4.0 0.00 0.00 0.00 86 1016.5
20260508162014 63 89 2.0 4.0 0.00 0.00 0.00 87 1016.6
20260508161539 63 78 1.0 6.0 0.00 0.00 0.00 87 1016.7
20260508161015 63 149 2.0 6.0 0.00 0.00 0.00 87 1016.6
20260508160512 62 142 2.0 7.0 0.00 0.00 0.00 88 1016.6
20260508160035 62 112 3.0 7.0 0.00 0.00 0.00 87 1016.6
20260508155512 62 99 2.0 6.0 0.00 0.00 0.00 88 1016.5
20260508155014 62 103 1.0 4.0 0.00 0.00 0.00 88 1016.5
20260508154532 62 0 1.0 4.0 0.00 0.00 0.00 88 1016.4
20260508154012 62 90 2.0 6.0 0.00 0.00 0.00 88 1016.4
20260508153513 62 77 1.0 6.0 0.00 0.00 0.00 89 1016.4
20260508153037 62 115 1.0 6.0 0.00 0.00 0.00 89 1016.4
20260508152511 62 124 2.0 5.0 0.00 0.00 0.00 89 1016.6
20260508152011 62 61 2.0 6.0 0.00 0.00 0.00 89 1016.5
20260508151538 62 105 2.0 7.0 0.00 0.00 0.00 89 1016.6
20260508151017 62 100 2.0 7.0 0.00 0.00 0.00 89 1016.6
20260508150517 61 134 2.0 6.0 0.00 0.00 0.00 89 1016.6
20260508150030 61 69 2.0 6.0 0.00 0.00 0.00 89 1016.6
20260508145511 61 101 2.0 6.0 0.00 0.00 0.00 90 1016.6
20260508145016 61 69 2.0 7.0 0.00 0.00 0.00 90 1016.6
20260508144530 61 130 1.0 7.0 0.00 0.00 0.00 90 1016.6
20260508144012 61 82 1.0 4.0 0.00 0.00 0.00 91 1016.5
20260508143514 61 98 1.0 7.0 0.00 0.00 0.00 91 1016.6
20260508143031 61 106 2.0 7.0 0.00 0.00 0.00 91 1016.5
20260508142512 61 101 1.0 4.0 0.00 0.00 0.00 91 1016.6
20260508142009 61 96 2.0 5.0 0.00 0.00 0.00 91 1016.5
20260508141532 61 126 2.0 5.0 0.00 0.00 0.00 91 1016.5
20260508141012 61 128 1.0 6.0 0.00 0.00 0.00 92 1016.5
20260508140511 60 79 1.0 6.0 0.00 0.00 0.00 92 1016.3
20260508140030 60 67 2.0 4.0 0.00 0.00 0.00 92 1016.3
20260508135515 60 107 2.0 6.0 0.00 0.00 0.00 92 1016.2
20260508135011 60 101 1.0 6.0 0.00 0.00 0.00 92 1016.3
20260508134532 60 103 2.0 6.0 0.00 0.00 0.00 93 1016.3
20260508134012 60 143 1.0 6.0 0.00 0.00 0.00 93 1016.2
20260508133512 60 131 1.0 6.0 0.00 0.00 0.00 93 1016.3
20260508133051 60 118 0.0 6.0 0.00 0.00 0.00 93 1016.3
20260508132513 60 161 1.0 6.0 0.00 0.00 0.00 93 1016.3
20260508132017 60 114 1.0 6.0 0.00 0.00 0.00 93 1016.3
20260508131528 60 130 1.0 6.0 0.00 0.00 0.00 93 1016.1
20260508131010 60 140 1.0 6.0 0.00 0.00 0.00 93 1016.1
20260508130510 60 96 1.0 9.0 0.00 0.00 0.00 93 1016.0
20260508130029 60 112 3.0 9.0 0.00 0.00 0.00 93 1015.9
20260508125515 60 94 3.0 9.0 0.00 0.00 0.00 93 1015.9
20260508125015 60 84 1.0 9.0 0.00 0.00 0.00 93 1015.9
20260508124534 60 134 4.0 9.0 0.00 0.00 0.00 93 1015.8
20260508124013 61 109 2.0 7.0 0.00 0.00 0.00 93 1015.9
20260508123511 61 115 3.0 7.0 0.00 0.00 0.00 93 1015.8
20260508123034 61 103 2.0 6.0 0.00 0.00 0.00 93 1015.7
20260508122512 61 104 2.0 6.0 0.00 0.00 0.00 93 1015.6
20260508122010 61 99 1.0 4.0 0.00 0.00 0.00 93 1015.7
20260508121533 61 117 1.0 6.0 0.00 0.00 0.00 93 1015.7
20260508121012 61 100 2.0 6.0 0.00 0.00 0.00 92 1015.5
20260508120512 61 103 2.0 6.0 0.00 0.00 0.00 92 1015.5
20260508120031 61 99 2.0 6.0 0.00 0.00 0.00 92 1015.5
20260508115512 61 110 1.0 5.0 0.00 0.00 0.00 92 1015.5
20260508115008 61 132 1.0 4.0 0.00 0.00 0.00 92 1015.5
20260508114530 61 119 1.0 4.0 0.00 0.00 0.00 92 1015.5
20260508114013 60 109 1.0 7.0 0.00 0.00 0.00 92 1015.6
20260508113515 60 116 1.0 7.0 0.00 0.00 0.00 92 1015.5
20260508113037 60 111 2.0 6.0 0.00 0.00 0.00 92 1015.4
20260508112517 60 99 2.0 7.0 0.00 0.00 0.00 91 1015.5
20260508112011 60 98 2.0 7.0 0.00 0.00 0.00 91 1015.4
20260508111529 61 112 2.0 6.0 0.00 0.00 0.00 91 1015.4
20260508111011 61 75 2.0 4.0 0.00 0.00 0.00 91 1015.3
20260508110513 61 0 2.0 4.0 0.00 0.00 0.00 91 1015.4
20260508110032 61 126 2.0 4.0 0.00 0.00 0.00 90 1015.3
20260508105512 61 133 2.0 4.0 0.00 0.00 0.00 90 1015.3
20260508105011 60 69 1.0 3.0 0.00 0.00 0.00 90 1015.4
20260508104528 60 103 1.0 4.0 0.00 0.00 0.00 90 1015.5
20260508104010 60 86 1.0 5.0 0.00 0.00 0.00 90 1015.5
20260508103510 60 103 2.0 5.0 0.00 0.00 0.00 90 1015.5
20260508103029 60 114 1.0 3.0 0.00 0.00 0.00 90 1015.5
20260508102513 60 100 1.0 3.0 0.00 0.00 0.00 90 1015.4
20260508102012 60 0 0.0 2.0 0.00 0.00 0.00 90 1015.5
20260508101528 60 157 1.0 6.0 0.00 0.00 0.00 90 1015.5
20260508101010 60 0 1.0 6.0 0.00 0.00 0.00 89 1015.5
20260508100511 60 151 1.0 6.0 0.00 0.00 0.00 90 1015.3
20260508100028 60 132 2.0 6.0 0.00 0.00 0.00 90 1015.4
20260508095512 60 128 1.0 5.0 0.00 0.00 0.00 90 1015.5
20260508095013 60 155 1.0 5.0 0.00 0.00 0.00 89 1015.5
20260508094530 60 101 2.0 5.0 0.00 0.00 0.00 89 1015.6
20260508094014 60 167 2.0 5.0 0.00 0.00 0.00 89 1015.7
20260508093516 61 117 1.0 5.0 0.00 0.00 0.00 89 1015.7
20260508093031 60 95 1.0 6.0 0.00 0.00 0.00 90 1015.7
20260508092509 60 105 1.0 6.0 0.00 0.00 0.00 90 1015.8
20260508092009 61 148 2.0 5.0 0.00 0.00 0.00 90 1015.7
20260508091545 61 109 1.0 4.0 0.00 0.00 0.00 90 1015.9
20260508091013 60 103 1.0 4.0 0.00 0.00 0.00 90 1015.9
20260508090513 60 115 1.0 4.0 0.00 0.00 0.00 91 1015.9
20260508090032 60 103 1.0 4.0 0.00 0.00 0.00 91 1015.9
20260508085514 60 86 1.0 6.0 0.00 0.00 0.00 91 1016.0
20260508085015 60 103 2.0 6.0 0.00 0.00 0.00 91 1016.0
20260508084532 60 70 2.0 4.0 0.00 0.00 0.00 92 1016.0
20260508084017 60 96 2.0 4.0 0.00 0.00 0.00 92 1016.0
20260508083513 60 87 1.0 4.0 0.00 0.00 0.00 93 1016.0
20260508083037 60 0 0.0 1.0 0.00 0.00 0.00 93 1016.1
20260508082514 59 0 0.0 2.0 0.00 0.00 0.00 93 1016.1
20260508082012 59 231 0.0 2.0 0.00 0.00 0.00 93 1016.0
20260508081529 59 231 0.0 2.0 0.00 0.00 0.00 93 1016.2
20260508081013 59 0 0.0 0.0 0.00 0.00 0.00 93 1016.2
20260508080514 59 0 0.0 0.0 0.00 0.00 0.00 93 1016.2
20260508080037 59 0 0.0 0.0 0.00 0.00 0.00 93 1016.4
20260508075512 59 0 0.0 0.0 0.00 0.00 0.00 92 1016.3
20260508075016 58 0 0.0 0.0 0.00 0.00 0.00 92 1016.3
20260508074530 58 0 0.0 0.0 0.00 0.00 0.00 92 1016.2
20260508074014 59 0 0.0 0.0 0.00 0.00 0.00 92 1016.3
20260508073514 59 0 0.0 0.0 0.00 0.00 0.00 92 1016.3
20260508073034 59 0 0.0 0.0 0.00 0.00 0.00 92 1016.3
20260508072515 59 0 0.0 0.0 0.00 0.00 0.00 92 1016.3
20260508072014 59 0 0.0 0.0 0.00 0.00 0.00 92 1016.2
20260508071532 59 0 0.0 0.0 0.00 0.00 0.00 91 1016.2
20260508071016 59 0 0.0 0.0 0.00 0.00 0.00 91 1016.3
20260508070514 59 0 0.0 0.0 0.00 0.00 0.00 91 1016.3
20260508070032 59 0 0.0 0.0 0.00 0.00 0.00 91 1016.3
20260508065515 59 0 0.0 0.0 0.00 0.00 0.00 91 1016.2
20260508065016 59 0 0.0 0.0 0.00 0.00 0.00 91 1016.1
20260508064537 59 0 0.0 0.0 0.00 0.00 0.00 91 1016.2
20260508064013 59 0 0.0 0.0 0.00 0.00 0.00 91 1016.2
20260508063516 59 0 0.0 0.0 0.00 0.00 0.00 91 1016.3
20260508063055 59 0 0.0 1.0 0.00 0.00 0.00 91 1016.2
20260508062518 59 0 0.0 1.0 0.00 0.00 0.00 91 1016.2
20260508062014 60 0 0.0 0.0 0.00 0.00 0.00 91 1016.1
20260508061531 60 0 0.0 1.0 0.00 0.00 0.00 91 1016.1
20260508061034 60 0 0.0 1.0 0.00 0.00 0.00 91 1016.1
20260508060516 60 0 0.0 2.0 0.00 0.00 0.00 91 1016.1
20260508060033 60 231 0.0 2.0 0.00 0.00 0.00 91 1016.1
20260508055509 60 0 0.0 2.0 0.00 0.00 0.00 91 1016.1
20260508055010 60 0 0.0 4.0 0.00 0.00 0.00 91 1016.1
20260508054532 60 0 0.0 4.0 0.00 0.00 0.00 91 1016.1
20260508054013 60 220 1.0 4.0 0.00 0.00 0.00 91 1016.2
20260508053513 60 261 1.0 4.0 0.00 0.00 0.00 91 1016.2
20260508053043 60 239 1.0 4.0 0.00 0.00 0.00 91 1016.2
20260508052510 60 0 0.0 3.0 0.00 0.00 0.00 91 1016.2
20260508052020 60 242 0.0 3.0 0.00 0.00 0.00 90 1016.2
20260508051537 60 241 0.0 3.0 0.00 0.00 0.00 90 1016.2
20260508051012 61 0 0.0 3.0 0.00 0.00 0.00 90 1016.1
20260508050514 61 240 0.0 4.0 0.00 0.00 0.00 90 1016.1
20260508050030 61 215 1.0 6.0 0.00 0.00 0.00 91 1016.0
20260508045512 61 240 1.0 8.0 0.00 0.00 0.00 91 1015.9
20260508045012 61 251 2.0 8.0 0.00 0.00 0.00 91 1015.8
20260508044530 61 0 3.0 8.0 0.00 0.00 0.00 90 1015.7
20260508044010 61 290 3.0 9.0 0.00 0.00 0.00 90 1015.7
20260508043516 61 250 2.0 9.0 0.00 0.00 0.00 90 1015.7
20260508043029 61 265 3.0 9.0 0.00 0.00 0.00 90 1015.6
20260508042512 61 241 2.0 8.0 0.00 0.00 0.00 89 1015.6
20260508042013 61 261 2.0 8.0 0.00 0.00 0.00 89 1015.5
20260508041532 61 255 1.0 9.0 0.00 0.00 0.00 89 1015.5
20260508041012 61 252 3.0 9.0 0.00 0.00 0.00 89 1015.4
20260508040512 61 279 3.0 10.0 0.00 0.00 0.00 89 1015.3
20260508040031 61 259 4.0 10.0 0.00 0.00 0.00 89 1015.2
20260508035512 61 212 2.0 7.0 0.00 0.00 0.00 89 1015.2
20260508035013 61 240 2.0 7.0 0.00 0.00 0.00 89 1015.2
20260508034530 61 252 2.0 7.0 0.00 0.00 0.00 89 1015.2
20260508034012 61 238 1.0 7.0 0.00 0.00 0.00 89 1015.1
20260508033509 61 259 2.0 7.0 0.00 0.00 0.00 89 1015.0
20260508033034 61 240 1.0 7.0 0.00 0.00 0.00 89 1015.0
20260508032516 61 266 1.0 7.0 0.00 0.00 0.00 89 1015.0
20260508032013 61 261 2.0 7.0 0.00 0.00 0.00 88 1014.9
20260508031529 61 0 1.0 6.0 0.00 0.00 0.00 88 1014.8
20260508031012 62 270 1.0 6.0 0.00 0.00 0.00 88 1014.7
20260508030509 62 263 1.0 6.0 0.00 0.00 0.00 88 1014.7
20260508030036 62 242 2.0 8.0 0.00 0.00 0.00 88 1014.6
20260508025515 62 242 2.0 8.0 0.00 0.00 0.00 88 1014.5
20260508025013 62 235 2.0 8.0 0.00 0.00 0.00 88 1014.5
20260508024531 62 265 2.0 8.0 0.00 0.00 0.00 87 1014.4
20260508024013 62 238 2.0 8.0 0.00 0.00 0.00 87 1014.4
20260508023513 62 246 3.0 11.0 0.00 0.00 0.00 87 1014.4
20260508023033 62 286 4.0 11.0 0.00 0.00 0.00 86 1014.4
20260508022513 63 261 3.0 12.0 0.00 0.00 0.00 86 1014.3
20260508022012 63 266 3.0 12.0 0.00 0.00 0.00 86 1014.3
20260508021533 63 295 5.0 12.0 0.00 0.00 0.00 86 1014.3
20260508021016 63 257 4.0 10.0 0.00 0.00 0.00 86 1014.2
20260508020512 63 225 4.0 10.0 0.00 0.00 0.00 86 1014.3
20260508020030 63 242 4.0 10.0 0.00 0.00 0.00 85 1014.3
20260508015510 64 219 2.0 10.0 0.00 0.00 0.00 84 1014.2
20260508015010 64 270 4.0 10.0 0.00 0.00 0.00 84 1014.2
20260508014531 64 219 2.0 10.0 0.00 0.00 0.00 83 1014.2
20260508014013 64 235 3.0 10.0 0.00 0.00 0.00 83 1014.3
20260508013512 64 244 2.0 11.0 0.00 0.00 0.00 83 1014.2
20260508013030 64 217 5.0 11.0 0.00 0.00 0.00 83 1014.1
20260508012509 64 268 4.0 10.0 0.00 0.00 0.00 83 1014.2
20260508012011 64 232 4.0 10.0 0.00 0.00 0.00 84 1014.1
20260508011532 64 220 3.0 10.0 0.00 0.00 0.00 85 1014.2
20260508011012 64 259 3.0 8.0 0.00 0.00 0.00 84 1014.2
20260508010512 65 330 2.0 8.0 0.00 0.00 0.00 84 1014.2
20260508010038 64 202 4.0 13.0 0.00 0.00 0.00 84 1014.2
20260508005512 65 211 3.0 13.0 0.00 0.00 0.00 84 1014.1
20260508005014 65 269 3.0 13.0 0.00 0.00 0.00 83 1014.1
20260508004530 65 265 3.0 9.0 0.00 0.00 0.00 83 1014.1
20260508004016 65 217 4.0 11.0 0.00 0.00 0.00 83 1014.0
20260508003510 65 239 4.0 11.0 0.00 0.00 0.00 84 1014.1
20260508003030 64 216 5.0 12.0 0.00 0.00 0.00 84 1014.2
20260508002514 65 269 4.0 12.0 0.00 0.00 0.00 84 1014.2
20260508002014 65 223 4.0 12.0 0.00 0.00 0.00 83 1014.1
20260508001530 65 215 4.0 10.0 0.00 0.00 0.00 83 1014.1
20260508001010 65 280 4.0 11.0 0.00 0.00 0.00 82 1014.2
20260508000510 66 216 4.0 11.0 0.00 0.00 0.00 82 1014.2
20260508000038 66 245 4.0 10.0 0.00 0.00 0.00 82 1014.2
20260507235516 66 216 4.0 10.0 0.00 0.00 0.00 82 1014.2
20260507235013 65 269 3.0 13.0 0.00 0.00 0.00 83 1014.2
20260507234530 65 225 6.0 13.0 0.00 0.00 0.00 82 1014.3
20260507234012 65 236 4.0 12.0 0.00 0.00 0.00 83 1014.4
20260507233509 65 269 4.0 12.0 0.00 0.00 0.00 83 1014.4
20260507233038 66 257 5.0 12.0 0.00 0.00 0.00 83 1014.4
20260507232513 66 271 5.0 12.0 0.00 0.00 0.00 82 1014.4
20260507232014 66 275 4.0 12.0 0.00 0.00 0.00 82 1014.4
20260507231531 66 249 5.0 12.0 0.00 0.00 0.00 82 1014.4
20260507231011 66 269 3.0 10.0 0.00 0.00 0.00 82 1014.4
20260507230512 66 197 4.0 12.0 0.00 0.00 0.00 81 1014.4
20260507230045 67 240 6.0 16.0 0.00 0.00 0.00 80 1014.4
20260507225514 67 221 5.0 16.0 0.00 0.00 0.00 80 1014.4
20260507225013 67 261 5.0 16.0 0.00 0.00 0.00 80 1014.3
20260507224535 67 289 6.0 15.0 0.00 0.00 0.00 79 1014.4
20260507224009 67 221 6.0 15.0 0.00 0.00 0.00 80 1014.4
20260507223509 66 277 7.0 18.0 0.00 0.00 0.00 81 1014.4
20260507223104 66 257 8.0 18.0 0.00 0.00 0.00 80 1014.4
20260507222510 66 259 9.0 18.0 0.00 0.00 0.00 80 1014.5
20260507222012 66 267 8.0 17.0 0.00 0.00 0.00 80 1014.5
20260507221531 66 248 9.0 17.0 0.00 0.00 0.00 80 1014.5
20260507221012 66 240 7.0 15.0 0.00 0.00 0.00 80 1014.7
20260507220512 66 211 6.0 15.0 0.00 0.00 0.00 80 1014.6
20260507220033 66 255 7.0 17.0 0.00 0.00 0.00 79 1014.7
20260507215513 67 268 7.0 17.0 0.00 0.00 0.00 79 1014.6
20260507215012 67 230 8.0 16.0 0.00 0.00 0.00 79 1014.6
20260507214530 67 235 6.0 18.0 0.00 0.00 0.00 79 1014.6
20260507214012 66 253 6.0 19.0 0.00 0.00 0.00 79 1014.7
20260507213509 67 267 8.0 19.0 0.00 0.00 0.00 79 1014.7
20260507213030 67 252 9.0 19.0 0.00 0.00 0.00 79 1014.8
20260507212509 67 306 8.0 18.0 0.00 0.00 0.00 80 1014.7
20260507212017 67 219 8.0 18.0 0.00 0.00 0.00 79 1014.8
20260507211528 66 275 7.0 17.0 0.00 0.00 0.00 80 1014.9
20260507211010 67 248 9.0 17.0 0.00 0.00 0.00 79 1015.0
20260507210516 67 259 7.0 17.0 0.00 0.00 0.00 79 1015.1
20260507210037 67 248 6.0 15.0 0.00 0.00 0.00 80 1015.2
20260507205510 67 248 7.0 17.0 0.00 0.00 0.00 79 1015.4
20260507205012 66 238 8.0 17.0 0.00 0.00 0.00 81 1015.4
20260507204533 66 245 8.0 17.0 0.00 0.00 0.00 81 1015.3
20260507204012 66 186 9.0 15.0 0.00 0.00 0.00 79 1015.4
20260507203512 66 241 7.0 16.0 0.00 0.00 0.00 80 1015.4
20260507203036 66 202 8.0 18.0 0.00 0.00 0.00 80 1015.4
20260507202509 66 288 10.0 18.0 0.00 0.00 0.00 80 1015.4
20260507202014 66 215 6.0 15.0 0.00 0.00 0.00 80 1015.5
20260507201534 66 265 6.0 17.0 0.00 0.00 0.00 81 1015.5
20260507201020 66 230 7.0 17.0 0.00 0.00 0.00 81 1015.5
20260507200510 66 254 8.0 17.0 0.00 0.00 0.00 80 1015.6